ATLAS CENTAUR 2 DEB, 739

Orbit data source: Space-Track

ATLAS CENTAUR 2 DEB, 739 is space debris in LEO originally from a launch on Wed, 27 Nov 1963 UTC launched from the Air Force Eastern Test Range (AFETR). Debris objects in space refer to the collection of defunct objects orbiting the Earth. Examples of debris include non-operational satellites, rocket bodies, and fragments generated from explosions, collisions, or faulty payload assembly.

Loading next visibility...
Identifier
739, 1963-047H
Orbit
LEO
Last TLE update
6 hours ago
Origin
Manufacturer
GD/Convair
Mission
Spacecraft
Bus & Motor
CENTAUR PART, Unknown motor
Mass
Unknown
Launch date (UTC)
1963-11-27 (61 years ago)
Launch vehicle
Unknown
Launch site
Air Force Eastern Test Range (AFETR)
Object type
Payload
Rocket body
Debris
Shape & HBR
Unknown
Radar Cross Section
0.290 m², Medium (>0.1 m² and < 1m²)

Expand to show TLE details & history

TLE from 6 hours ago
0 ATLAS CENTAUR 2 DEB
1 00739U 63047H   25128.96324804  .00000466  00000-0  59192-4 0  9999
2 00739  30.4256  96.9176 0637682 233.2654 120.7726 13.84747474 85306
Epoch: 2025-05-08T23:07Z
Definitive object data (Epoch: 2025-05-08T23:07:04.63Z)
Latitude
0.00002°
Longitude
-116.87786°
Altitude
1,205.462 km
Speed
7.124 km/s
True Right ascension
06h 27m 40s
True Declination
0° 00' 00"
Sunlit
Object was in daylight at TLE epoch
Visualization TLE readout
Latitude
-27.45108°
Longitude
123.29001°
Altitude
491.543 km
Speed
7.856 km/s
Apparent Right ascension
23h 52m 43s
Apparent Declination
-35° 38' 20"
Sunlit
Object is in daylight
Visualization observer readout
Local Sidereal Time
13:39:14
Azimuth
86.971° E
Elevation
-68.607°
Doppler factor
1
Orbital elements
Apogee altitude
1,418.179 km
Perigee altitude
483.47 km
Semi-major axis
7,328.961 km
Eccentricity
0.0637682
Inclination
30.4256°
RAAN
96.9176°
Arg. of periapsis
233.2654°
True anomaly
126.79364°
Mean anomaly
120.7726°
Eccentric anomaly
123.80843°
Mean motion
3.45923 °/min
BSTAR
0.000059192
Orbital period
104.07 mins
Loading maneuver chart data...
Loading SW <> Apogee altitude chart data...

ATLAS CENTAUR 2 DEB Visibility forecast

Observer location: undefined°, undefined°

Span
Click to sort rows by Start time (UTC) header in descending order
Start Az.
Max El. time (UTC)
Max El. Az.
Max El.
End time (UTC)
End Az.
11 mins2025-05-09 06:33:33.101Z254.53° W2025-05-09 06:39:33.101Z205.437° SW24.238°2025-05-09 06:44:33.101Z153.576° SSE
6 mins2025-05-09 23:31:33.101Z161.823° S2025-05-09 23:33:33.101Z147.297° SSE13.805°2025-05-09 23:37:33.101Z120.085° SE
13 mins2025-05-10 01:17:33.101Z212.96° SW2025-05-10 01:23:33.101Z163.407° S27.849°2025-05-10 01:30:33.101Z105.76° ESE
14 mins2025-05-10 03:07:33.101Z239.452° WSW2025-05-10 03:14:33.101Z175.018° S34.852°2025-05-10 03:21:33.101Z110.306° ESE
13 mins2025-05-10 04:58:33.101Z252.179° W2025-05-10 05:05:33.101Z186.301° SSW32.077°2025-05-10 05:11:33.101Z129.592° SE
|